Date String (YYYY-MM-DD hh:mm:ss) UTC,Instrument flags,absolute air pressure of the measurement (hPa),sample flow rate (lpm),inlet stack bypass flow (lpm),air temperature of the measurement (°C),ambient temperature measured by the external sensor (°C),aerosol sample conditioner tube jacket temperature (°C),OPC LED temperature (°C),internal box temperature (°C),relative humidity of the measurement (%),span deviation,mass concentration of particles derived from Lorenz-Mie calculation of OPC scattering (μg/m³),mass concentration of particles derived from Lorenz-Mie calculation of OPC scattering (μg/m³),mass concentration of particles derived from Lorenz-Mie calculation of OPC scattering (μg/m³)
DateTimeUTC,F1_M11,P_M11,Q1_M11,Q2_M11,T1_M11,T2_M11,T3_M11,T4_M11,T5_M11,U1_M11,ZSPAN_M11,X0_M11,X2_M11,X1_M11
2023-09-16 04:00:00,SystemResetWarning,0836.8,5.00,000.00,028.6,027.1,000.0,037.0,030.1,21.7,0000.0,0007.95,0004.08,0003.70
2023-09-16 04:01:00,SystemResetWarning,0836.8,5.00,000.00,028.6,027.0,000.0,037.0,030.1,21.8,0000.0,0008.41,0004.07,0003.69
2023-09-16 04:02:00,SystemResetWarning,0836.8,4.99,000.00,028.5,027.0,000.0,037.0,030.0,21.9,0000.0,0008.45,0004.07,0003.69
2023-09-16 04:03:00,SystemResetWarning,0836.8,5.01,000.00,028.5,027.0,000.0,037.0,030.0,21.8,0000.0,0008.70,0004.09,0003.68
2023-09-16 04:04:00,SystemResetWarning,0836.8,5.01,000.00,028.5,027.0,000.0,037.0,030.0,21.8,0000.0,0008.52,0004.10,0003.69
2023-09-16 04:05:00,SystemResetWarning,0836.7,4.99,000.00,028.5,027.0,000.0,037.0,030.0,21.8,0000.0,0008.43,0004.13,0003.69
2023-09-16 04:06:00,SystemResetWarning,0836.8,4.99,000.00,028.5,027.0,000.0,037.0,030.0,21.8,0000.0,0008.52,0004.12,0003.68
2023-09-16 04:07:00,SystemResetWarning,0836.8,5.00,000.00,028.5,027.1,000.0,037.0,030.0,21.7,0000.0,0008.41,0004.12,0003.68
2023-09-16 04:08:00,SystemResetWarning,0836.8,5.01,000.00,028.5,027.0,000.0,037.0,030.1,21.7,0000.0,0008.33,0004.10,0003.69
2023-09-16 04:09:00,SystemResetWarning,0836.8,5.01,000.00,028.5,027.0,000.0,037.0,030.1,21.7,0000.0,0008.08,0004.09,0003.69
2023-09-16 04:10:00,SystemResetWarning,0836.7,5.00,000.00,028.5,027.0,000.0,037.0,030.1,21.7,0000.0,0008.15,0004.13,0003.70
2023-09-16 04:11:00,SystemResetWarning,0836.8,5.01,000.00,028.5,027.0,000.0,037.0,030.1,21.5,0000.0,0008.19,0004.16,0003.70
2023-09-16 04:12:00,SystemResetWarning,0836.8,5.00,000.00,028.5,027.0,000.0,037.0,030.0,21.5,0000.0,0007.79,0004.21,0003.72
2023-09-16 04:13:00,SystemResetWarning,0836.8,5.00,000.00,028.5,027.0,000.0,037.0,030.0,21.5,0000.0,0007.89,0004.26,0003.73
2023-09-16 04:14:00,SystemResetWarning,0836.7,4.99,000.00,028.5,027.0,000.0,037.0,030.0,21.4,0000.0,0007.70,0004.24,0003.73
2023-09-16 04:15:00,SystemResetWarning,0836.8,5.00,000.00,028.5,027.0,000.0,037.0,030.0,21.4,0000.0,0007.50,0004.24,0003.73
2023-09-16 04:16:00,SystemResetWarning,0836.8,5.00,000.00,028.5,027.0,000.0,037.0,030.1,21.4,0000.0,0007.33,0004.19,0003.75
2023-09-16 04:17:00,SystemResetWarning,0836.8,5.02,000.00,028.5,027.0,000.0,037.0,030.1,21.6,0000.0,0007.25,0004.23,0003.76
2023-09-16 04:18:00,SystemResetWarning,0836.8,4.99,000.00,028.5,027.0,000.0,037.0,030.0,21.5,0000.0,0007.11,0004.25,0003.76
2023-09-16 04:19:00,SystemResetWarning,0836.8,4.99,000.00,028.5,027.0,000.0,037.0,030.0,21.5,0000.0,0007.19,0004.27,0003.75
2023-09-16 04:20:00,SystemResetWarning,0836.8,4.99,000.00,028.5,027.0,000.0,037.0,030.0,21.3,0000.0,0007.33,0004.29,0003.75
2023-09-16 04:21:00,SystemResetWarning,0836.8,5.00,000.00,028.5,027.0,000.0,037.0,030.0,21.3,0000.0,0007.53,0004.29,0003.74
2023-09-16 04:22:00,SystemResetWarning,0836.8,5.02,000.00,028.5,027.0,000.0,037.0,030.0,21.3,0000.0,0007.54,0004.27,0003.74
2023-09-16 04:23:00,SystemResetWarning,0836.8,4.99,000.00,028.5,027.0,000.0,037.0,030.0,21.4,0000.0,0007.50,0004.25,0003.74
2023-09-16 04:24:00,SystemResetWarning,0836.8,4.99,000.00,028.5,027.0,000.0,037.0,030.0,21.4,0000.0,0007.46,0004.22,0003.73
2023-09-16 04:25:00,SystemResetWarning,0836.8,4.99,000.00,028.5,027.0,000.0,037.0,030.0,21.3,0000.0,0007.49,0004.24,0003.74
2023-09-16 04:26:00,SystemResetWarning,0836.8,5.01,000.00,028.5,027.0,000.0,037.0,030.0,21.3,0000.0,0007.50,0004.24,0003.74
2023-09-16 04:27:00,SystemResetWarning,0836.8,5.01,000.00,028.5,027.0,000.0,037.0,030.0,21.2,0000.0,0007.62,0004.27,0003.73
2023-09-16 04:28:00,SystemResetWarning,0836.8,4.99,000.00,028.5,027.0,000.0,037.0,030.0,21.3,0000.0,0007.57,0004.24,0003.73
2023-09-16 04:29:00,SystemResetWarning,0836.8,4.99,000.00,028.5,027.0,000.0,037.0,030.0,21.1,0000.0,0007.60,0004.25,0003.74
2023-09-16 04:30:00,SystemResetWarning,0836.8,5.02,000.00,028.5,027.0,000.0,037.0,030.0,21.0,0000.0,0007.50,0004.23,0003.74
2023-09-16 04:31:00,SystemResetWarning,0836.8,5.00,000.00,028.5,027.0,000.0,037.0,030.0,21.1,0000.0,0007.27,0004.18,0003.74
2023-09-16 04:32:00,SystemResetWarning,0836.8,4.99,000.00,028.5,027.0,000.0,037.0,030.0,21.2,0000.0,0007.01,0004.17,0003.74
2023-09-16 04:33:00,SystemResetWarning,0836.8,5.00,000.00,028.5,027.0,000.0,037.0,030.0,21.2,0000.0,0007.68,0004.17,0003.74
2023-09-16 04:34:00,SystemResetWarning,0836.8,4.99,000.00,028.5,027.0,000.0,037.0,030.0,21.2,0000.0,0007.65,0004.15,0003.73
2023-09-16 04:35:00,SystemResetWarning,0836.8,4.99,000.00,028.5,026.9,000.0,037.0,030.0,21.1,0000.0,0007.76,0004.13,0003.73
2023-09-16 04:36:00,SystemResetWarning,0836.8,5.01,000.00,028.5,026.9,000.0,037.0,029.9,21.1,0000.0,0007.74,0004.12,0003.73
2023-09-16 04:37:00,SystemResetWarning,0836.8,5.01,000.00,028.5,026.9,000.0,037.0,029.9,21.3,0000.0,0007.81,0004.13,0003.73
2023-09-16 04:38:00,SystemResetWarning,0836.8,4.99,000.00,028.5,027.0,000.0,037.0,030.0,21.3,0000.0,0007.82,0004.13,0003.71
2023-09-16 04:39:00,SystemResetWarning,0836.8,4.99,000.00,028.5,026.9,000.0,037.0,030.0,21.4,0000.0,0007.85,0004.15,0003.70
2023-09-16 04:40:00,SystemResetWarning,0836.8,5.01,000.00,028.4,026.9,000.0,037.0,029.9,21.3,0000.0,0007.83,0004.13,0003.69
2023-09-16 04:41:00,SystemResetWarning,0836.8,5.01,000.00,028.5,026.9,000.0,036.9,029.9,21.1,0000.0,0007.81,0004.11,0003.68
2023-09-16 04:42:00,SystemResetWarning,0836.8,5.01,000.00,028.5,026.9,000.0,036.9,029.9,21.0,0000.0,0007.83,0004.13,0003.68
2023-09-16 04:43:00,SystemResetWarning,0836.8,5.00,000.00,028.5,026.9,000.0,036.9,029.9,21.0,0000.0,0007.87,0004.12,0003.66
2023-09-16 04:44:00,SystemResetWarning,0836.8,4.99,000.00,028.5,026.9,000.0,036.9,029.9,20.9,0000.0,0007.28,0004.12,0003.66
2023-09-16 04:45:00,SystemResetWarning,0836.8,4.99,000.00,028.4,026.9,000.0,036.9,030.0,21.1,0000.0,0007.32,0004.14,0003.65
2023-09-16 04:46:00,SystemResetWarning,0836.8,5.01,000.00,028.4,026.9,000.0,036.9,030.0,20.9,0000.0,0007.31,0004.16,0003.64
2023-09-16 04:47:00,SystemResetWarning,0836.8,5.01,000.00,028.4,026.9,000.0,036.9,030.0,20.9,0000.0,0007.21,0004.14,0003.63
2023-09-16 04:48:00,SystemResetWarning,0836.8,5.01,000.00,028.4,026.9,000.0,036.9,029.9,20.9,0000.0,0007.03,0004.11,0003.63
2023-09-16 04:49:00,SystemResetWarning,0836.8,5.00,000.00,028.4,026.9,000.0,036.9,029.9,20.8,0000.0,0006.75,0004.08,0003.62
2023-09-16 04:50:00,SystemResetWarning,0836.8,4.99,000.00,028.4,026.9,000.0,036.9,029.9,20.7,0000.0,0006.75,0004.08,0003.62
2023-09-16 04:51:00,SystemResetWarning,0836.8,4.99,000.00,028.4,026.9,000.0,036.9,029.9,20.6,0000.0,0006.70,0004.05,0003.61
2023-09-16 04:52:00,SystemResetWarning,0836.8,5.00,000.00,028.4,026.9,000.0,036.9,029.9,20.9,0000.0,0006.69,0004.04,0003.60
2023-09-16 04:53:00,SystemResetWarning,0836.8,5.01,000.00,028.4,026.9,000.0,036.9,029.9,20.8,0000.0,0006.69,0004.01,0003.59
2023-09-16 04:54:00,SystemResetWarning,0836.8,5.00,000.00,028.4,026.9,000.0,036.9,029.9,20.7,0000.0,0006.67,0004.02,0003.59
2023-09-16 04:55:00,SystemResetWarning,0836.8,5.01,000.00,028.4,026.9,000.0,036.9,029.9,20.6,0000.0,0006.50,0003.99,0003.58
2023-09-16 04:56:00,SystemResetWarning,0836.8,5.01,000.00,028.4,026.8,000.0,036.9,029.9,20.7,0000.0,0006.33,0003.95,0003.57
2023-09-16 04:57:00,SystemResetWarning,0836.7,5.00,000.00,028.4,026.8,000.0,036.9,029.9,20.9,0000.0,0006.01,0003.91,0003.56
2023-09-16 04:58:00,SystemResetWarning,0836.8,5.00,000.00,028.4,026.8,000.0,036.9,029.9,20.8,0000.0,0005.94,0003.91,0003.54
2023-09-16 04:59:00,SystemResetWarning,0836.8,5.00,000.00,028.4,026.8,000.0,036.9,029.9,20.7,0000.0,0006.45,0003.93,0003.53
